Cloud_Cover
0 0 0 0 0 0 0 0 0 0 0 0 0 0 0 0 0 0 0 0 0 0 0 0 0 0 0 4 96 100 100 100 100 100 100 100 100 100 100 100 100 79 100
0 0 0 0 0 0 0 0 0 0 0 0 0 0 0 0 0 0 0 0 0 0 0 0 0 0 0 2 7 14 100 100 100 100 100 100 100 100 91 94 100 99 43
1 1 0 0 0 0 0 0 0 0 0 0 0 0 0 0 0 0 0 0 0 0 0 0 0 0 0 0 0 0 42 100 80 100 100 100 100 100 100 100 92 84 82
2 0 0 0 0 0 0 0 0 0 0 0 0 0 4 9 0 0 0 0 0 0 0 0 0 0 0 0 0 0 5 4 86 100 99 100 100 100 100 100 100 96 82
0 0 0 0 0 0 0 0 0 0 0 0 12 100 100 66 12 0 0 0 0 0 0 0 0 0 0 0 0 0 4 22 31 21 71 100 94 100 100 100 100 100 89
0 0 0 1 3 0 0 0 0 3 35 100 100 100 100 65 91 92 36 0 17 3 0 0 0 0 0 0 0 0 0 1 8 10 0 38 80 91 100 100 100 100 100
4 0 0 0 0 0 0 0 2 55 95 100 100 100 70 61 59 96 100 100 100 9 1 2 0 0 0 0 0 0 0 0 9 4 16 2 3 11 95 100 100 100 100
0 0 0 0 0 0 27 11 21 100 100 100 100 100 100 100 100 100 100 100 100 100 100 97 43 0 0 0 0 0 7 22 35 19 10 6 0 0 1 70 95 100 100
0 0 0 0 1 49 5 5 64 100 100 74 100 100 100 100 95 100 100 100 99 100 88 39 26 0 0 0 0 0 15 46 38 26 22 18 3 8 10 0 19 72 60
1 4 42 29 49 13 5 5 100 100 100 100 100 100 100 16 2 98 48 2 0 11 79 94 20 0 0 0 0 1 5 11 14 26 28 22 16 20 20 16 24 25 61
100 56 100 100 100 45 36 76 100 100 100 100 100 100 100 79 100 95 57 11 4 0 0 0 0 0 0 0 0 0 0 21 14 7 26 6 0 25 47 59 56 100 100
100 100 79 99 100 99 100 100 100 100 100 100 100 100 100 100 99 24 41 89 0 0 0 0 0 0 0 0 0 0 0 0 0 0 0 0 3 24 21 27 14 25 6
98 56 91 100 96 100 100 100 98 100 100 100 100 100 100 100 100 100 98 61 71 46 6 0 0 0 0 0 0 0 0 0 0 0 0 0 0 0 7 24 41 20 4
94 98 100 100 100 100 100 100 95 99 57 99 100 100 100 100 100 100 100 100 100 100 100 63 14 14 2 0 7 4 0 0 0 0 0 0 0 0 0 0 0 5 21
66 96 100 100 100 100 100 100 100 100 79 100 94 56 61 98 99 100 100 100 100 100 100 100 100 100 100 100 100 100 100 99 84 12 0 0 1 0 4 31 18 29 73
100 100 100 100 100 100 62 99 100 100 92 99 79 68 49 100 100 94 100 100 100 100 100 100 100 100 100 100 100 100 100 100 100 100 100 100 99 98 100 100 100 100 100
64 99 100 100 77 59 78 83 71 67 27 10 6 75 90 100 100 100 90 100 100 100 100 100 100 100 100 100 100 100 100 100 100 100 100 100 100 100 100 100 100 100 100
9 8 59 41 22 37 51 9 5 2 2 5 5 5 2 4 41 23 18 59 99 100 100 100 100 100 100 100 100 100 100 100 100 100 100 100 100 100 100 100 100 100 100
5 5 5 31 48 9 15 5 6 38 5 5 3 0 0 0 0 11 11 7 26 82 93 100 100 100 100 99 100 97 100 100 100 100 100 100 100 100 100 100 100 100 100
5 5 5 49 5 5 5 5 5 4 4 4 2 0 0 0 0 0 0 0 0 0 0 0 18 76 49 99 99 91 98 100 100 100 100 100 100 100 100 100 100 100 100
0 0 5 5 5 4 3 5 4 4 5 5 0 0 0 0 0 0 0 0 0 0 0 0 0 0 0 55 99 45 25 62 80 76 43 85 100 100 100 100 100 100 100
0 1 2 2 0 0 0 0 0 0 0 0 0 0 0 0 0 0 0 3 5 5 5 5 5 5 3 2 88 100 87 64 74 48 20 21 31 24 30 35 61 76 100
0 0 0 0 0 0 0 0 0 0 0 0 0 0 4 5 5 5 5 5 68 98 100 100 90 89 83 3 84 100 91 28 5 5 10 47 44 6 17 18 5 50 97
0 0 0 0 0 0 0 0 0 1 2 4 2 0 5 5 5 5 70 100 91 49 4 6 99 8 45 41 5 5 13 12 5 22 8 8 5 5 5 5 6 62 96
0 0 0 4 5 4 5 5 5 5 5 9 34 17 42 75 42 43 92 100 5 2 1 0 4 5 5 5 5 100 95 5 5 21 22 5 5 5 5 5 6 94 100
0 0 0 1 5 52 5 46 100 100 99 100 100 79 76 8 5 5 6 5 3 2 6 5 4 4 9 80 90 100 19 5 42 95 19 5 5 5 5 5 5 5 34